Location: ???????
(37.9763°N, 23.8889°E)
Time: 08:04:56
(UTC+00:00)

Cosmos 2123 Rocket - Pass Details

Date: 15 June 2024
Orbit: 961 x 991 km, 82.9° (Epoch: 23 July)

Event Time Altitude Azimuth Distance (km) Brightness Sun altitude
Rises 01:34:58 0° 350° (N) 3,653 7.5 -14.2°
Reaches altitude 10° 01:37:29 10° 348° (NNW) 2,705 6.8 -13.9°
Maximum altitude 01:43:37 71° 267° (W) 1,021 4.0 -13.0°
Drops below altitude 10° 01:49:46 10° 184° (S) 2,703 5.9 -12.1°
Enters shadow 01:51:20 - 183° (S) 3,294 6.3 -11.9°
